• In Uzbekistan
  • List of Countries
  • For 7 days
  • Water Temperature
  • Satellite Maps
  • Weather Map
  • Weather Widgets
  • user-avatar
    Login

    Hourly Weather Sopron

    Today, 11 December, Monday

    Time Temperature Precipitation Wind Pressure Humidity
    00:00 +3°C° 0 mm 7 mps 732 mmHg 75%
    01:00 +3°C° 0 mm 7 mps 732 mmHg 78%
    02:00 +3°C° 0 mm 6 mps 731 mmHg 80%
    03:00 +3°C° 0 mm 6 mps 731 mmHg 82%
    04:00 +3°C° 0 mm 6 mps 730 mmHg 83%
    05:00 +4°C° 0 mm 7 mps 730 mmHg 83%
    06:00 +5°C° 0 mm 7 mps 730 mmHg 82%
    07:00 +6°C° 0 mm 8 mps 730 mmHg 81%
    08:00 +7°C° 0 mm 8 mps 729 mmHg 79%
    09:00 +8°C° 0 mm 9 mps 729 mmHg 76%
    10:00 +11°C° 0 mm 9 mps 729 mmHg 73%
    11:00 +11°C° 0 mm 10 mps 729 mmHg 74%
    12:00 +11°C° 0 mm 10 mps 729 mmHg 75%
    13:00 +12°C° 0 mm 10 mps 729 mmHg 76%
    14:00 +12°C° 0 mm 10 mps 729 mmHg 75%
    15:00 +12°C° 0 mm 10 mps 729 mmHg 75%
    16:00 +12°C° 0 mm 9 mps 730 mmHg 74%
    17:00 +12°C° 0 mm 10 mps 730 mmHg 73%
    18:00 +12°C° 0 mm 10 mps 730 mmHg 72%
    19:00 +12°C° 0 mm 10 mps 730 mmHg 71%
    20:00 +11°C° 0 mm 10 mps 731 mmHg 71%
    21:00 +11°C° 0 mm 10 mps 731 mmHg 72%
    22:00 +11°C° 0 mm 10 mps 731 mmHg 72%
    23:00 +11°C° 0 mm 9 mps 731 mmHg 73%

    Tomorrow, 12 December, Tuesday

    Time Temperature Precipitation Wind Pressure Humidity
    00:00 +11°C° 0 mm 9 mps 731 mmHg 73%
    01:00 +10°C° 0 mm 9 mps 732 mmHg 74%
    02:00 +10°C° 0 mm 8 mps 732 mmHg 74%
    03:00 +10°C° 0 mm 8 mps 732 mmHg 74%
    04:00 +10°C° 0 mm 8 mps 733 mmHg 74%
    05:00 +10°C° 0 mm 7 mps 734 mmHg 74%
    06:00 +9°C° 0 mm 6 mps 734 mmHg 75%
    07:00 +9°C° 0 mm 5 mps 735 mmHg 75%
    08:00 +9°C° 0.2 mm 5 mps 736 mmHg 76%
    09:00 +8°C° 0.2 mm 4 mps 737 mmHg 76%
    10:00 +9°C° 0.2 mm 3 mps 738 mmHg 77%
    11:00 +8°C° 1.1 mm 3 mps 738 mmHg 79%
    12:00 +8°C° 1.1 mm 3 mps 738 mmHg 80%
    13:00 +8°C° 1.1 mm 3 mps 739 mmHg 82%
    14:00 +7°C° 1.8 mm 3 mps 739 mmHg 84%
    15:00 +7°C° 1.8 mm 3 mps 740 mmHg 85%
    16:00 +5°C° 1.8 mm 4 mps 740 mmHg 86%
    17:00 +5°C° 2.1 mm 4 mps 741 mmHg 86%
    18:00 +4°C° 2.1 mm 4 mps 742 mmHg 85%
    19:00 +4°C° 2.1 mm 4 mps 742 mmHg 84%
    20:00 +4°C° 0.9 mm 4 mps 743 mmHg 82%
    21:00 +4°C° 0.9 mm 4 mps 744 mmHg 81%
    22:00 +3°C° 0.9 mm 4 mps 745 mmHg 79%
    23:00 +3°C° 0.3 mm 4 mps 745 mmHg 78%

    Day after tomorrow, 13 December, Wednesday

    Time Temperature Precipitation Wind Pressure Humidity
    00:00 +3°C° 0.3 mm 4 mps 746 mmHg 77%
    01:00 +3°C° 0.3 mm 4 mps 747 mmHg 76%
    02:00 +3°C° 0.1 mm 4 mps 747 mmHg 77%
    03:00 +1°C° 0.1 mm 4 mps 747 mmHg 78%
    04:00 +2°C° 0.1 mm 3 mps 748 mmHg 79%
    05:00 +2°C° 0 mm 3 mps 748 mmHg 80%
    06:00 +2°C° 0 mm 3 mps 748 mmHg 80%
    07:00 +3°C° 0 mm 2 mps 749 mmHg 81%
    08:00 +3°C° 0 mm 2 mps 749 mmHg 78%
    09:00 +3°C° 0 mm 2 mps 749 mmHg 75%
    10:00 +4°C° 0 mm 2 mps 749 mmHg 73%
    11:00 +4°C° 0 mm 2 mps 749 mmHg 70%
    12:00 +5°C° 0 mm 2 mps 749 mmHg 68%
    13:00 +5°C° 0 mm 2 mps 748 mmHg 65%
    14:00 +4°C° 0 mm 2 mps 748 mmHg 70%
    15:00 +4°C° 0 mm 2 mps 747 mmHg 75%
    16:00 +3°C° 0 mm 2 mps 747 mmHg 80%
    17:00 +3°C° 0 mm 2 mps 746 mmHg 82%
    18:00 +1°C° 0 mm 3 mps 746 mmHg 84%
    19:00 +1°C° 0 mm 3 mps 746 mmHg 86%
    20:00 +1°C° 0 mm 3 mps 745 mmHg 86%
    21:00 +1°C° 0 mm 3 mps 745 mmHg 85%
    22:00 0°C° 0 mm 3 mps 745 mmHg 85%
    23:00 0°C° 0 mm 3 mps 744 mmHg 85%

    14 December, Thursday

    Time Temperature Precipitation Wind Pressure Humidity
    00:00 0°C° 0 mm 3 mps 744 mmHg 86%
    01:00 0°C° 0 mm 3 mps 743 mmHg 86%
    02:00 0°C° 0 mm 3 mps 743 mmHg 86%
    03:00 +1°C° 0 mm 2 mps 743 mmHg 86%
    04:00 +2°C° 0 mm 2 mps 743 mmHg 86%
    05:00 +1°C° 0 mm 2 mps 743 mmHg 86%
    06:00 +1°C° 0 mm 2 mps 742 mmHg 86%
    07:00 +1°C° 0 mm 2 mps 742 mmHg 85%
    08:00 +2°C° 0 mm 2 mps 742 mmHg 83%
    09:00 +2°C° 0 mm 3 mps 741 mmHg 81%
    10:00 +2°C° 0 mm 3 mps 741 mmHg 78%
    11:00 +3°C° 0 mm 4 mps 740 mmHg 76%
    12:00 +3°C° 0 mm 5 mps 738 mmHg 74%
    13:00 +4°C° 0 mm 6 mps 737 mmHg 71%
    14:00 +4°C° 0.1 mm 6 mps 736 mmHg 72%
    15:00 +5°C° 0.1 mm 7 mps 735 mmHg 73%
    16:00 +5°C° 0.1 mm 7 mps 735 mmHg 74%
    17:00 +5°C° 0.1 mm 7 mps 734 mmHg 75%
    18:00 +5°C° 0.1 mm 6 mps 734 mmHg 77%
    19:00 +4°C° 0.1 mm 6 mps 734 mmHg 79%
    20:00 +5°C° 0 mm 6 mps 733 mmHg 77%
    21:00 +5°C° 0 mm 6 mps 732 mmHg 76%
    22:00 +6°C° 0 mm 7 mps 732 mmHg 74%
    23:00 +6°C° 0.1 mm 7 mps 732 mmHg 74%

    15 December, Friday

    Time Temperature Precipitation Wind Pressure Humidity
    00:00 +5°C° 0.1 mm 7 mps 733 mmHg 73%
    01:00 +5°C° 0.1 mm 6 mps 733 mmHg 73%
    02:00 +5°C° 0.2 mm 6 mps 734 mmHg 72%
    03:00 +5°C° 0.2 mm 5 mps 735 mmHg 72%
    04:00 +5°C° 0.2 mm 4 mps 736 mmHg 72%
    05:00 +4°C° 0.2 mm 3 mps 736 mmHg 73%
    06:00 +4°C° 0.2 mm 3 mps 737 mmHg 74%
    07:00 +5°C° 0.2 mm 2 mps 738 mmHg 75%
    08:00 +5°C° 0.3 mm 2 mps 738 mmHg 76%
    09:00 +3°C° 0.3 mm 3 mps 738 mmHg 77%
    10:00 +3°C° 0.3 mm 3 mps 738 mmHg 79%
    11:00 +3°C° 1.5 mm 3 mps 738 mmHg 81%
    12:00 +3°C° 1.5 mm 3 mps 738 mmHg 83%
    13:00 +2°C° 1.5 mm 3 mps 737 mmHg 85%
    14:00 +2°C° 1.4 mm 3 mps 737 mmHg 88%
    15:00 +2°C° 1.4 mm 3 mps 736 mmHg 90%
    16:00 +1°C° 1.4 mm 3 mps 736 mmHg 93%
    17:00 +1°C° 1.8 mm 3 mps 736 mmHg 93%
    18:00 +1°C° 1.8 mm 3 mps 735 mmHg 94%
    19:00 +1°C° 1.8 mm 3 mps 735 mmHg 94%
    20:00 +1°C° 1.2 mm 3 mps 735 mmHg 94%
    21:00 0°C° 1.2 mm 4 mps 735 mmHg 93%
    22:00 0°C° 1.2 mm 4 mps 735 mmHg 92%
    23:00 0°C° 0.2 mm 4 mps 735 mmHg 91%

    16 December, Saturday

    Time Temperature Precipitation Wind Pressure Humidity
    00:00 +1°C° 0.2 mm 3 mps 736 mmHg 89%
    01:00 +1°C° 0.2 mm 3 mps 736 mmHg 88%
    02:00 +1°C° 0.1 mm 3 mps 736 mmHg 88%
    03:00 +1°C° 0.1 mm 3 mps 736 mmHg 88%
    04:00 +1°C° 0.1 mm 3 mps 736 mmHg 88%
    05:00 +1°C° 0.1 mm 3 mps 737 mmHg 88%
    06:00 +1°C° 0.1 mm 3 mps 737 mmHg 87%
    07:00 +1°C° 0.1 mm 3 mps 737 mmHg 87%
    08:00 +1°C° 0 mm 3 mps 738 mmHg 86%
    09:00 +1°C° 0 mm 3 mps 738 mmHg 86%
    10:00 +1°C° 0 mm 3 mps 738 mmHg 85%
    11:00 +1°C° 0 mm 3 mps 738 mmHg 84%
    12:00 +2°C° 0 mm 3 mps 738 mmHg 83%
    13:00 +2°C° 0 mm 3 mps 738 mmHg 82%
    14:00 +1°C° 0 mm 3 mps 738 mmHg 82%
    15:00 +1°C° 0 mm 3 mps 738 mmHg 81%
    16:00 +1°C° 0 mm 3 mps 738 mmHg 81%
    17:00 +1°C° 0 mm 3 mps 738 mmHg 81%
    18:00 0°C° 0 mm 4 mps 738 mmHg 81%
    19:00 -1°C° 0 mm 4 mps 738 mmHg 81%
    20:00 0°C° 0 mm 5 mps 738 mmHg 80%
    21:00 -1°C° 0 mm 6 mps 738 mmHg 80%
    22:00 -1°C° 0 mm 6 mps 738 mmHg 79%
    23:00 -1°C° 0 mm 7 mps 738 mmHg 79%
    Show more